Location: ????
(32.1228°N, 34.8377°E)
Time: 01:22:49
(UTC+00:00)

NOSS 3-3 (A) - Pass Details

Date: 21 September 2020
Orbit: 822 x 1390 km, 63.4° (Epoch: 13 October)

Event Time Altitude Azimuth Distance (km) Brightness Sun altitude
Exits shadow 01:09:08 49° 346° (NNW) 1,142 4.3 -29.6°
Drops below altitude 10° 01:14:05 10° 22° (NNE) 2,704 6.8 -28.6°
Sets 01:16:52 0° 26° (NNE) 3,739 7.7 -28.1°
